Weather History for Sault Ste Marie, MI

Change the Weather History Date:

Monday, October 24, 2011

  Actual Average Record
Temperature  
Mean Temperature 45 °F 43 °F  
Max Temperature 47 °F 50 °F 79 °F (1963)
Min Temperature 43 °F 35 °F 16 °F (1981)
Degree Days  
Heating Degree Days 20 22  
Month to date heating degree days 302 437  
Since 1 July heating degree days 543 838  
Cooling Degree Days 0 0  
Month to date cooling degree days 3 0  
Year to date cooling degree days 255 195  
Moisture  
Dew Point 39 °F    
Average Humidity 79    
Maximum Humidity 92    
Minimum Humidity 65    
Precipitation  
Precipitation 0.25 in 0.11 in 1.86 in (1959)
Month to date precipitation 3.56 2.97  
Year to date precipitation 31.72 25.96  
Snow  
Snow 0.00 in 0.10 in 3.30 in (1926)
Month to date snowfall 0.0 0.8  
Since 1 July snowfall T 0.8  
Snow Depth 0.00 in    
Sea Level Pressure  
Sea Level Pressure 29.76 in    
Wind  
Wind Speed 15 mph (WNW)    
Max Wind Speed 26 mph    
Max Gust Speed 37 mph    
Visibility 8 miles    
Events Rain    
T = Trace of Precipitation, MM = Missing Value Source: NWS Daily Summary

Daily Weather History Graph

Daily Weather History Graph

Search for Another Location

Airport:

Trip Planner

Search our weather history database for the weather conditions in past years. The results will help you decide how hot, cold, wet, or windy it might be!

Date:

Astronomy

Oct. 24, 2011 Rise Set
Actual Time 8:07 AM EDT 6:35 PM EDT
Civil Twilight 7:36 AM EDT 7:06 PM EDT
Nautical Twilight 7:00 AM EDT 7:41 PM EDT
Astronomical Twilight 6:26 AM EDT 8:16 PM EDT
Moon 5:17 AM EDT (10/24) 5:04 PM EDT (10/24)
Length of Visible Light 11h 30m
Length of Day
10h 28m
Waning Crescent, 7% of the Moon is Illuminated
Oct 24
Waning Crescent
Oct 26
New
Nov 2
First Quarter
Nov 10
Full
Nov 18
Last Quarter

Hourly Weather History & Observations

Time (EDT) Temp. Windchill Dew Point Humidity Pressure Visibility Wind Dir Wind Speed Gust Speed Precip Events Conditions
12:55 AM 44.1 °F - 41.0 °F 89% 29.74 in 9.0 mi Calm Calm - 0.04 in Rain Light Rain
1:55 AM 44.1 °F 41.5 °F 42.1 °F 93% 29.71 in 6.0 mi East 4.6 mph - 0.02 in Rain Rain
2:40 AM 44.6 °F 43.1 °F 42.8 °F 93% 29.68 in 4.0 mi East 3.5 mph - 0.05 in Rain Light Rain
2:55 AM 45.0 °F 42.6 °F 43.0 °F 93% 29.68 in 5.0 mi East 4.6 mph - 0.07 in Rain Light Rain
3:55 AM 46.0 °F 43.9 °F 43.0 °F 89% 29.64 in 6.0 mi East 4.6 mph - 0.00 in Rain Light Rain
4:37 AM 46.4 °F 44.3 °F 42.8 °F 87% 29.62 in 10.0 mi Variable 4.6 mph - 0.01 in   Overcast
4:55 AM 46.0 °F 43.9 °F 43.0 °F 89% 29.62 in 9.0 mi Variable 4.6 mph - 0.01 in   Overcast
5:00 AM - - - N/A% - - North - - N/A   Unknown
5:06 AM 46.4 °F 44.3 °F 44.6 °F 93% 29.61 in 6.0 mi SW 4.6 mph - N/A   Overcast
5:47 AM 46.4 °F 40.7 °F 42.8 °F 87% 29.62 in 10.0 mi West 12.7 mph 23.0 mph 0.00 in   Overcast
5:55 AM 46.9 °F - 42.1 °F 83% 29.62 in 10.0 mi West 17.3 mph 25.3 mph 0.00 in   Overcast
6:39 AM 46.4 °F 39.2 °F 41.0 °F 81% 29.62 in 10.0 mi West 18.4 mph 28.8 mph 0.01 in Rain Light Rain
6:55 AM 46.9 °F - 39.9 °F 77% 29.63 in 10.0 mi WNW 19.6 mph 31.1 mph 0.01 in Rain Light Rain
7:55 AM 46.0 °F 39.3 °F 41.0 °F 83% 29.65 in 10.0 mi West 16.1 mph 24.2 mph 0.00 in Rain Light Rain
8:15 AM 46.4 °F 40.4 °F 41.0 °F 81% 29.65 in 10.0 mi West 13.8 mph 24.2 mph 0.01 in Rain Light Rain
8:44 AM 46.4 °F 40.4 °F 42.8 °F 87% 29.66 in 10.0 mi West 13.8 mph 25.3 mph 0.01 in Rain Light Rain
8:55 AM 46.9 °F - 42.1 °F 83% 29.67 in 8.0 mi West 18.4 mph 27.6 mph 0.01 in Rain Light Rain
9:06 AM 46.4 °F 38.7 °F 41.0 °F 81% 29.67 in 3.0 mi WNW 20.7 mph 31.1 mph 0.00 in Rain Heavy Rain
9:10 AM 46.4 °F 40.1 °F 39.2 °F 76% 29.67 in 2.5 mi WNW 15.0 mph 31.1 mph N/A Rain Heavy Rain
9:16 AM 46.4 °F 40.4 °F 42.8 °F 87% 29.67 in 5.0 mi West 13.8 mph 24.2 mph 0.04 in Rain Light Rain
9:23 AM 46.4 °F 40.1 °F 42.8 °F 87% 29.67 in 10.0 mi West 15.0 mph 26.5 mph 0.04 in Rain Light Rain
9:37 AM 46.4 °F 38.7 °F 42.8 °F 87% 29.68 in 3.0 mi WNW 20.7 mph 29.9 mph 0.04 in Rain Light Rain
9:44 AM 46.4 °F 39.5 °F 42.8 °F 87% 29.68 in 2.5 mi West 17.3 mph 29.9 mph 0.06 in Rain Rain
9:48 AM 46.4 °F 39.0 °F 42.8 °F 87% 29.68 in 4.0 mi West 19.6 mph 27.6 mph 0.07 in Rain Light Rain
9:55 AM 46.9 °F - 42.1 °F 83% 29.70 in 4.0 mi West 18.4 mph 32.2 mph 0.07 in Rain Rain
10:20 AM 46.4 °F 39.5 °F 42.8 °F 87% 29.69 in 10.0 mi WNW 17.3 mph 33.4 mph 0.02 in   Overcast
10:31 AM 46.4 °F 39.8 °F 42.8 °F 87% 29.69 in 10.0 mi West 16.1 mph 31.1 mph 0.02 in   Overcast
10:55 AM 46.9 °F - 41.0 °F 80% 29.71 in 7.0 mi West 17.3 mph 32.2 mph 0.02 in Rain Rain
11:23 AM 46.4 °F 38.7 °F 41.0 °F 81% 29.72 in 6.0 mi WNW 20.7 mph 32.2 mph 0.04 in Rain Light Rain
11:55 AM 46.0 °F 38.3 °F 41.0 °F 83% 29.75 in 10.0 mi WNW 20.7 mph 28.8 mph 0.04 in   Overcast
12:02 PM 46.4 °F 39.2 °F 41.0 °F 81% 29.74 in 10.0 mi WNW 18.4 mph 33.4 mph N/A   Overcast
12:19 PM 46.4 °F 38.3 °F 39.2 °F 76% 29.75 in 10.0 mi WNW 23.0 mph 35.7 mph N/A   Overcast
12:55 PM 46.9 °F - 39.0 °F 74% 29.77 in 10.0 mi WNW 18.4 mph 33.4 mph N/A   Mostly Cloudy
1:20 PM 46.4 °F 38.3 °F 37.4 °F 71% 29.78 in 10.0 mi WNW 23.0 mph 34.5 mph N/A   Mostly Cloudy
1:30 PM 46.4 °F 38.7 °F 37.4 °F 71% 29.78 in 10.0 mi WNW 20.7 mph 33.4 mph N/A   Overcast
1:55 PM 46.0 °F 39.0 °F 37.0 °F 71% 29.81 in 10.0 mi WNW 17.3 mph 26.5 mph N/A   Overcast
2:55 PM 45.0 °F 37.1 °F 35.1 °F 68% 29.84 in 10.0 mi WNW 19.6 mph 29.9 mph N/A   Overcast
3:55 PM 45.0 °F 37.1 °F 35.1 °F 68% 29.86 in 10.0 mi West 19.6 mph 29.9 mph N/A   Overcast
4:20 PM 44.6 °F 37.8 °F 35.6 °F 71% 29.86 in 10.0 mi WNW 15.0 mph 27.6 mph 0.00 in Rain Light Rain
4:43 PM 44.6 °F 36.9 °F 35.6 °F 71% 29.87 in 10.0 mi WNW 18.4 mph 26.5 mph 0.00 in   Overcast
4:55 PM 45.0 °F 37.4 °F 36.0 °F 71% 29.89 in 10.0 mi West 18.4 mph 27.6 mph 0.00 in Rain Light Rain
5:32 PM 44.6 °F 37.2 °F 35.6 °F 71% 29.89 in 10.0 mi WNW 17.3 mph 28.8 mph 0.00 in   Overcast
5:55 PM 44.1 °F 36.8 °F 35.1 °F 71% 29.92 in 10.0 mi WNW 16.1 mph 27.6 mph 0.00 in   Overcast
6:55 PM 43.0 °F 34.8 °F 34.0 °F 71% 29.94 in 10.0 mi WNW 18.4 mph 27.6 mph N/A   Overcast
7:55 PM 44.1 °F 37.7 °F 34.0 °F 68% 29.97 in 10.0 mi West 12.7 mph 20.7 mph N/A   Overcast
8:55 PM 44.1 °F 38.6 °F 33.1 °F 65% 29.98 in 10.0 mi WNW 10.4 mph 26.5 mph N/A   Overcast
9:55 PM 44.1 °F 37.4 °F 33.1 °F 65% 29.99 in 10.0 mi West 13.8 mph - N/A   Overcast
10:20 PM 44.6 °F 38.4 °F 32.0 °F 61% 29.99 in 10.0 mi West 12.7 mph 23.0 mph N/A   Overcast
10:55 PM 44.1 °F 37.4 °F 33.1 °F 65% 30.00 in 10.0 mi WNW 13.8 mph 20.7 mph 0.00 in Rain Light Rain
11:23 PM 42.8 °F 36.2 °F 33.8 °F 70% 29.99 in 10.0 mi West 12.7 mph 23.0 mph 0.00 in   Mostly Cloudy
11:55 PM 44.1 °F 37.4 °F 34.0 °F 68% 30.01 in 10.0 mi West 13.8 mph 21.9 mph 0.00 in   Mostly Cloudy